Temp
60 59 59 59 59 59 60 60 60 60 60 61 61 61 61 61 60 64 67 73 73 71 72 77 77 80 81 77 78 74 68 65 66 66 74 79 78 80 84 82 84 86 86 90 88
60 59 59 59 59 59 58 59 60 60 60 60 60 60 60 60 58 59 72 72 73 73 79 77 73 76 75 75 76 72 66 67 74 77 75 77 76 77 77 79 80 82 87 88 87
59 59 59 59 60 59 59 58 58 59 60 60 59 60 60 61 59 68 74 71 73 74 84 82 80 76 72 72 73 72 66 73 75 78 77 76 76 81 76 74 81 79 83 87 88
59 59 59 59 59 59 59 59 59 59 58 59 59 59 60 58 57 73 72 73 72 75 77 77 76 70 70 67 74 67 73 75 77 79 76 74 78 73 77 78 84 84 85 85 84
58 58 58 58 58 58 58 58 58 58 58 58 58 59 58 50 58 76 71 72 79 73 72 73 71 72 67 71 72 66 72 75 76 76 76 76 72 72 75 80 85 85 83 83 84
57 57 57 57 58 58 57 57 57 57 57 58 58 59 52 41 67 70 69 69 75 74 71 73 73 75 73 71 68 76 72 73 76 75 75 72 73 75 76 82 82 82 82 84 85
57 57 57 57 57 58 57 57 56 57 58 59 59 58 50 49 66 70 68 65 67 71 70 75 76 71 72 68 74 72 66 70 70 72 71 74 68 70 79 82 79 80 82 83 84
57 56 57 57 57 57 57 57 56 57 58 59 59 57 46 64 68 64 65 63 67 70 68 76 78 73 69 72 67 65 66 61 72 72 73 71 64 77 82 79 78 79 80 80 82
57 56 56 57 57 57 56 56 57 58 59 59 54 51 45 64 59 65 65 61 69 68 70 75 74 68 67 62 60 61 57 57 64 71 71 70 68 77 80 77 75 77 79 80 82
57 56 56 56 57 56 55 55 57 57 59 60 59 47 54 55 62 66 68 64 63 65 64 66 67 62 63 60 50 55 54 59 59 69 70 69 67 74 75 75 74 76 78 79 79
57 56 56 56 56 55 54 53 54 51 53 48 50 50 55 63 67 64 66 60 60 63 57 62 57 55 59 61 63 63 61 60 66 70 67 67 66 68 74 75 75 75 76 77 78
56 56 56 56 56 54 54 49 49 50 41 53 52 53 57 61 51 60 67 57 54 53 61 56 53 63 66 64 60 60 58 59 65 68 66 66 65 70 72 73 76 76 76 77 79
55 55 55 55 55 52 49 50 57 56 41 48 53 52 53 56 48 52 62 59 54 53 57 56 61 64 62 61 57 58 56 58 59 65 67 64 61 66 74 74 76 77 78 78 77
55 55 55 54 51 51 49 56 56 55 36 43 47 53 55 56 48 60 64 61 57 53 57 58 67 62 60 58 61 53 63 62 60 57 53 64 51 62 68 69 73 76 77 78 79
54 55 55 54 49 48 53 56 57 52 25 49 50 64 61 53 56 59 64 60 53 56 57 54 59 59 57 59 63 58 65 61 60 57 57 58 52 60 66 65 70 75 79 79 76
54 54 54 52 50 54 56 55 52 34 24 43 52 50 52 53 52 58 57 62 63 56 59 60 68 65 63 65 64 66 63 62 60 58 46 55 54 55 62 66 72 76 79 75 70
54 54 51 54 47 53 54 50 32 26 46 40 41 48 49 46 45 48 47 48 48 44 46 55 58 64 67 61 65 63 58 47 44 44 44 59 54 54 68 72 72 75 79 73 68
52 52 51 53 53 54 49 39 23 36 38 46 44 47 44 47 42 43 44 45 51 53 51 47 45 58 66 63 59 58 57 50 39 41 50 56 49 56 71 75 75 77 77 72 68
51 51 50 52 52 52 41 29 33 37 41 39 43 39 41 44 44 42 41 38 47 53 44 48 50 63 65 68 66 58 54 63 54 53 52 54 57 63 70 71 73 74 70 68 67
48 46 48 52 52 47 37 32 36 43 44 43 34 40 35 39 39 40 37 37 38 46 50 49 46 60 63 68 68 64 66 51 55 43 41 51 52 58 65 69 74 72 69 66 66
45 42 52 53 48 40 32 34 39 46 46 39 37 36 38 37 40 36 36 40 38 42 49 50 50 54 61 58 58 59 57 58 59 55 46 46 54 67 69 73 75 76 71 68 68
44 38 51 52 37 35 34 39 42 43 47 43 43 39 38 39 37 37 36 39 44 42 37 46 44 48 55 65 68 65 60 59 52 46 55 52 55 69 70 73 73 74 70 69 70
38 38 50 49 31 33 40 39 41 41 42 41 39 43 45 39 34 40 41 48 46 42 37 42 44 45 49 56 63 59 62 62 60 58 51 48 55 69 70 71 72 72 70 68 68
41 34 41 43 41 35 33 36 36 45 43 41 41 44 42 40 44 39 39 45 46 46 46 45 42 41 46 50 57 54 58 61 59 53 54 54 61 68 72 73 72 70 69 70 69
40 38 39 32 37 36 37 36 34 35 42 42 37 35 36 35 38 36 36 39 42 45 45 41 36 42 45 47 50 55 57 59 56 59 54 57 59 66 72 73 73 73 69 68 69
38 38 41 36 39 36 38 35 35 38 38 38 35 41 40 35 37 34 38 37 37 44 43 44 38 42 45 51 53 51 56 59 60 60 59 60 61 72 74 76 71 71 69 70 70
45 44 39 38 36 33 35 35 35 36 41 43 41 37 38 42 46 46 46 46 45 43 42 40 40 39 42 47 49 46 55 57 59 62 61 57 65 72 72 73 74 72 71 72 72
MSLP
1020.80 1020.62 1020.46 1020.14 1019.70 1019.41 1019.13 1018.82 1018.60 1018.34 1018.06 1017.62 1017.29 1017.09 1016.84 1016.29 1015.64 1014.71 1013.57 1011.91 1011.55 1011.56 1012.39 1011.99 1012.26 1012.04 1011.68 1011.59 1011.64 1012.24 1011.53 1009.99 1009.44 1009.19 1007.50 1007.87 1007.91 1008.17 1007.96 1007.38 1007.03 1007.02 1006.78 1006.62 1006.93
1020.82 1020.52 1020.20 1019.94 1019.52 1019.30 1019.22 1018.73 1018.42 1018.32 1018.12 1017.72 1017.35 1017.11 1016.73 1016.19 1015.49 1013.94 1011.05 1010.86 1010.58 1011.31 1011.70 1011.50 1011.85 1011.77 1011.35 1011.17 1011.15 1011.28 1010.62 1009.38 1008.33 1008.10 1007.76 1008.07 1008.15 1008.26 1007.97 1007.27 1006.27 1006.62 1006.51 1006.80 1006.80
1020.91 1020.52 1020.23 1019.88 1019.58 1019.25 1018.86 1018.64 1018.57 1018.19 1017.78 1017.64 1017.35 1017.19 1016.83 1016.39 1015.18 1011.59 1010.56 1010.53 1010.73 1011.04 1010.46 1011.15 1011.06 1011.30 1010.66 1010.68 1010.56 1010.11 1009.14 1008.53 1008.01 1007.85 1008.49 1008.17 1007.96 1008.02 1007.58 1006.49 1005.37 1005.91 1005.54 1005.61 1005.92
1020.70 1020.32 1020.04 1019.73 1019.30 1018.81 1018.46 1018.28 1018.23 1017.92 1017.55 1017.43 1017.18 1016.94 1016.40 1015.99 1013.41 1010.42 1010.26 1010.51 1010.21 1010.66 1011.03 1010.73 1010.52 1010.76 1009.85 1009.52 1009.89 1009.12 1008.39 1008.26 1007.46 1007.89 1008.37 1007.97 1007.97 1007.37 1007.56 1005.72 1005.53 1005.41 1005.41 1005.37 1005.00
1020.46 1020.11 1019.77 1019.47 1019.17 1018.85 1018.45 1018.14 1017.67 1017.53 1017.47 1017.15 1016.68 1016.57 1016.01 1015.33 1012.22 1010.31 1010.36 1010.37 1010.13 1010.66 1010.68 1010.15 1009.99 1009.94 1008.84 1008.61 1009.04 1008.41 1008.23 1007.67 1007.62 1008.05 1008.22 1008.15 1007.67 1007.42 1006.63 1004.68 1005.43 1005.21 1004.84 1004.57 1004.40
1020.40 1020.02 1019.61 1019.25 1018.89 1018.53 1018.23 1017.87 1017.47 1017.06 1016.66 1016.57 1016.59 1016.43 1016.06 1014.34 1011.63 1010.86 1010.75 1010.63 1010.20 1010.19 1010.29 1010.23 1009.65 1009.30 1008.79 1008.28 1007.99 1007.24 1007.85 1007.47 1007.39 1007.77 1007.61 1007.61 1006.59 1007.20 1005.70 1004.20 1004.87 1004.51 1003.99 1003.66 1003.59
1020.21 1019.81 1019.37 1018.94 1018.54 1018.09 1017.63 1017.17 1016.85 1016.46 1016.15 1015.91 1015.96 1015.99 1014.97 1012.48 1011.31 1010.96 1010.98 1010.94 1010.76 1010.40 1010.03 1009.93 1009.87 1009.70 1009.06 1008.28 1007.76 1007.69 1007.72 1007.44 1007.42 1007.25 1007.21 1007.20 1005.25 1005.74 1004.11 1004.34 1004.31 1003.72 1003.26 1003.00 1002.72
1020.04 1019.62 1019.15 1018.62 1018.11 1017.57 1017.02 1016.56 1016.18 1015.68 1015.28 1015.19 1015.47 1015.50 1013.27 1011.74 1011.11 1011.04 1010.85 1010.37 1010.29 1010.39 1010.60 1009.83 1009.63 1009.43 1009.23 1008.59 1008.15 1007.66 1007.39 1006.38 1006.04 1006.49 1006.55 1007.33 1003.13 1003.97 1003.66 1003.91 1003.50 1003.12 1002.70 1002.57 1002.03
1019.78 1019.35 1018.89 1018.36 1017.80 1017.23 1016.63 1016.01 1015.29 1014.77 1014.47 1014.54 1015.01 1014.77 1012.22 1011.22 1010.78 1010.08 1010.28 1010.03 1009.18 1009.37 1009.96 1009.62 1009.39 1008.94 1008.80 1008.47 1007.82 1006.76 1005.34 1005.64 1005.77 1005.97 1005.83 1005.77 1003.10 1003.19 1003.35 1003.42 1003.21 1002.47 1002.15 1001.95 1001.54
1019.68 1019.16 1018.65 1018.10 1017.54 1017.00 1016.39 1015.50 1014.66 1014.54 1014.38 1014.34 1014.03 1014.16 1011.41 1010.11 1009.48 1009.24 1009.26 1009.42 1009.09 1008.74 1009.14 1009.13 1008.48 1007.83 1007.38 1006.66 1003.74 1005.02 1005.50 1005.46 1005.22 1005.28 1004.97 1004.21 1003.08 1003.16 1003.13 1002.84 1002.65 1001.97 1001.56 1001.40 1000.95
1019.50 1019.01 1018.47 1017.97 1017.42 1016.93 1016.22 1015.42 1014.79 1014.59 1014.22 1013.61 1012.88 1011.88 1010.32 1009.23 1009.00 1008.51 1008.65 1008.93 1009.05 1007.75 1006.90 1007.28 1007.16 1004.26 1004.14 1005.14 1005.58 1005.40 1005.07 1004.49 1004.40 1004.72 1004.58 1003.34 1003.21 1003.25 1002.38 1002.26 1001.93 1001.41 1001.02 1000.57 1000.02
1019.42 1018.87 1018.31 1017.79 1017.28 1016.89 1016.53 1015.87 1015.76 1016.08 1014.03 1012.27 1011.14 1010.77 1010.10 1009.63 1009.04 1007.83 1008.21 1008.47 1007.97 1006.21 1006.03 1006.52 1003.50 1001.69 1004.50 1005.01 1005.36 1005.38 1004.93 1004.58 1004.62 1004.54 1004.30 1003.55 1002.71 1002.57 1002.27 1001.60 1001.26 1000.72 1000.04 999.82 999.49
1019.08 1018.57 1018.13 1017.65 1017.10 1016.98 1016.73 1016.18 1015.87 1015.79 1014.70 1010.68 1009.87 1009.48 1009.22 1009.15 1008.86 1007.40 1007.57 1007.02 1006.62 1005.90 1004.02 1001.99 997.94 1003.29 1003.70 1004.04 1004.43 1004.35 1004.18 1004.72 1004.35 1004.30 1004.12 1003.77 1002.33 1001.99 1001.27 1000.97 1000.45 999.90 999.64 999.22 999.33
1018.77 1018.27 1017.85 1017.35 1017.03 1016.94 1016.24 1015.92 1015.88 1015.76 1014.17 1010.61 1009.32 1008.61 1008.38 1008.26 1007.85 1006.58 1006.35 1006.11 1005.46 1004.15 1003.80 1002.42 1001.32 1001.65 1002.25 1002.31 1003.49 1003.10 1004.01 1004.47 1004.58 1004.70 1003.27 1003.59 1001.36 1001.36 1000.82 1000.15 999.43 998.74 998.78 998.46 998.95
1018.53 1017.98 1017.56 1017.27 1017.18 1016.64 1016.11 1015.95 1015.52 1015.39 1012.90 1009.48 1008.39 1007.54 1007.23 1007.52 1006.91 1005.12 1005.66 1005.56 1004.13 1003.50 1003.21 1000.04 1000.38 1000.89 1001.09 1000.87 1002.42 1002.20 1003.82 1004.27 1004.56 1004.24 1003.90 1003.45 1002.71 1000.71 1000.52 999.12 998.12 997.90 997.79 998.21 998.61
1018.08 1017.49 1017.10 1016.75 1016.93 1016.25 1016.02 1015.86 1015.35 1014.63 1011.39 1009.03 1008.06 1007.59 1006.96 1006.86 1006.77 1005.81 1005.12 1005.07 1004.00 1003.61 1002.26 1000.98 1000.28 1000.14 998.91 1001.09 1001.69 1002.78 1003.35 1003.93 1004.30 1004.06 1003.00 1002.82 1002.55 1000.32 999.26 997.95 997.35 996.89 997.08 997.90 998.84
1017.63 1017.07 1016.82 1016.58 1016.30 1016.23 1016.03 1015.41 1015.09 1013.04 1010.50 1009.57 1008.90 1008.35 1007.21 1006.97 1006.89 1006.88 1005.97 1004.96 1003.73 1003.08 1001.74 1001.17 1000.42 999.47 999.40 1000.13 1001.14 1001.99 1002.51 1003.00 1003.54 1003.21 1001.72 1001.88 1001.72 999.49 997.61 997.24 997.07 996.69 996.90 998.15 999.22
1017.22 1016.62 1016.65 1016.44 1016.40 1016.15 1016.22 1015.63 1014.35 1012.23 1011.05 1010.29 1009.68 1008.40 1007.58 1007.32 1007.69 1007.63 1006.50 1004.87 1004.56 1003.12 1001.68 1000.70 999.85 998.68 998.15 998.22 998.84 1000.26 1001.08 1001.00 1001.26 1001.22 1000.66 1000.91 1000.27 997.85 996.65 996.02 996.26 996.43 997.04 998.31 999.40
1016.95 1016.60 1016.49 1016.35 1016.30 1016.26 1016.20 1015.26 1013.46 1012.42 1011.86 1011.02 1009.88 1008.61 1007.84 1007.95 1008.00 1007.91 1007.71 1006.90 1005.60 1004.45 1003.64 1000.64 998.63 997.57 997.60 997.70 998.06 999.23 999.53 1000.30 1000.25 1000.86 1000.22 999.85 998.86 997.31 996.32 995.90 995.74 996.08 997.21 998.40 999.34
1017.23 1016.95 1016.61 1016.40 1016.48 1016.32 1016.01 1014.89 1013.77 1012.89 1012.20 1011.45 1010.49 1009.59 1008.69 1008.41 1008.28 1008.02 1008.74 1008.45 1007.87 1006.83 1005.52 1002.24 999.37 997.45 997.18 997.57 997.44 997.53 999.38 1000.06 1000.16 1000.02 999.58 998.65 997.95 996.22 995.38 995.08 995.35 996.03 997.05 998.25 999.49
1017.44 1017.02 1016.55 1016.57 1016.61 1016.33 1015.84 1014.82 1013.77 1012.62 1012.18 1011.64 1010.82 1010.15 1009.55 1008.96 1008.46 1008.72 1008.98 1008.94 1008.79 1007.44 1005.67 1003.53 1000.98 997.96 997.17 995.68 995.57 997.39 997.71 998.62 999.35 999.48 998.56 997.73 996.37 995.54 994.64 994.70 994.91 995.57 996.80 997.98 998.94
1017.84 1017.32 1016.68 1016.49 1016.77 1016.82 1015.92 1015.12 1014.21 1012.73 1012.13 1011.60 1011.02 1010.59 1009.99 1009.66 1008.85 1008.74 1008.61 1008.65 1009.13 1008.62 1006.83 1004.80 1002.52 998.91 996.07 995.91 995.93 996.24 996.61 997.58 997.95 998.86 998.26 997.49 995.88 995.05 994.85 994.67 995.05 995.47 996.49 997.98 999.13
1018.37 1018.03 1016.93 1016.64 1016.95 1016.62 1015.85 1015.16 1014.40 1013.13 1012.36 1011.86 1011.26 1010.74 1010.13 1009.71 1009.18 1008.47 1008.33 1008.08 1008.66 1008.38 1007.74 1006.09 1003.29 999.89 997.90 997.37 996.47 995.85 996.47 997.15 997.69 998.05 997.72 997.24 995.57 995.08 994.85 994.83 995.21 995.76 996.60 998.17 999.27
1018.68 1018.13 1017.51 1017.10 1017.36 1017.08 1016.24 1014.94 1014.23 1013.25 1012.58 1012.71 1011.63 1010.94 1010.22 1009.39 1008.92 1008.60 1008.40 1008.10 1008.48 1007.97 1007.51 1006.72 1004.49 1002.05 998.73 997.51 996.77 996.43 996.70 997.25 997.42 997.24 997.03 996.23 995.63 994.44 994.28 994.53 995.34 996.21 997.16 998.05 999.05
1019.15 1018.76 1018.54 1017.69 1016.97 1016.94 1016.41 1015.64 1014.58 1013.57 1012.98 1012.49 1011.93 1011.59 1011.03 1009.89 1009.01 1008.76 1008.88 1008.67 1008.53 1008.01 1007.49 1006.88 1004.96 1003.25 1001.10 999.87 998.75 996.97 996.62 996.84 996.88 996.75 996.53 996.25 995.57 994.76 994.30 994.78 995.22 995.94 997.02 998.21 998.71
1019.39 1018.99 1018.45 1018.01 1017.43 1016.81 1016.05 1015.48 1014.64 1013.81 1013.58 1012.40 1012.06 1011.35 1011.25 1010.56 1009.92 1009.06 1008.87 1008.66 1008.24 1007.82 1007.28 1006.61 1005.19 1003.63 1001.05 1000.04 999.03 997.83 997.23 996.69 996.73 996.87 996.67 996.44 995.47 995.18 994.70 994.65 995.18 995.63 996.48 997.38 997.93
1019.20 1019.09 1018.81 1017.70 1017.19 1016.69 1015.75 1015.36 1014.70 1014.36 1013.08 1012.51 1011.96 1011.56 1010.50 1009.81 1009.30 1009.01 1008.57 1008.31 1008.09 1007.55 1006.96 1006.49 1005.57 1004.14 1001.52 1000.33 999.28 997.83 996.86 997.00 997.04 997.05 997.33 996.77 994.61 995.68 994.92 994.33 994.54 995.17 995.75 996.46 997.10
Wind_Speed
14 14 13 14 15 15 14 14 14 15 16 16 15 14 16 20 20 5 12 9 6 3 6 10 6 8 7 7 5 3 7 13 14 11 9 2 4 2 5 10 6 4 13 9 6
13 13 14 14 14 13 13 15 15 14 14 15 14 14 16 17 7 10 13 11 13 12 11 13 10 12 7 8 7 7 11 18 15 13 12 6 6 7 7 14 21 17 14 11 8
15 15 14 14 15 15 14 13 13 15 14 14 14 14 13 14 7 6 9 17 21 14 16 13 12 13 10 6 11 10 20 25 21 18 9 16 17 12 14 22 23 17 21 21 14
16 16 15 15 17 17 17 16 15 14 14 14 12 13 14 4 10 6 17 12 6 15 18 15 13 11 11 17 17 16 22 23 26 19 14 21 18 17 18 30 24 23 19 18 22
18 18 17 16 16 16 17 17 17 16 13 14 13 12 6 6 10 2 13 11 6 9 16 18 19 19 16 15 19 22 20 19 20 21 20 20 22 19 25 30 21 21 20 19 20
18 18 18 18 18 19 17 17 17 17 16 15 12 11 5 15 7 9 9 9 4 7 11 15 9 13 13 13 22 14 22 24 18 17 22 22 26 17 25 27 20 20 22 21 20
17 18 18 18 19 19 18 18 16 17 18 16 12 9 13 23 10 11 16 4 3 3 12 15 18 6 4 9 16 15 16 12 13 15 14 11 24 18 29 20 20 23 21 20 19
18 17 18 19 19 20 20 20 20 22 20 17 11 9 11 10 11 17 16 12 13 16 7 10 13 17 7 4 1 11 11 18 13 18 12 14 24 16 19 13 16 19 17 16 19
19 18 19 20 19 20 21 22 26 17 9 5 5 7 12 5 8 12 15 15 7 14 12 7 11 12 8 15 10 11 14 14 11 9 5 17 20 15 11 8 16 18 19 19 19
20 19 19 21 20 20 19 23 16 1 4 6 3 5 6 2 3 10 7 16 9 11 9 11 11 12 16 18 26 15 13 14 14 9 17 20 24 18 19 12 18 19 19 19 19
21 20 19 19 19 18 16 6 2 3 2 8 9 10 21 13 12 7 3 4 12 16 16 20 13 30 30 26 17 18 20 26 19 14 15 18 18 11 17 17 20 20 20 20 19
21 21 20 19 19 16 4 3 4 3 12 16 24 23 25 13 11 13 6 9 11 19 21 13 31 28 21 22 23 24 23 21 16 12 13 15 21 15 17 22 21 20 20 20 18
20 20 19 18 18 2 5 4 5 8 6 17 10 9 8 10 12 22 11 9 12 20 30 26 37 18 20 23 25 27 28 22 18 11 13 13 23 18 22 13 16 18 18 19 16
20 19 18 18 3 5 5 2 7 4 5 6 2 5 5 5 7 15 15 14 12 22 23 23 24 24 22 30 23 26 23 22 20 13 16 3 17 14 21 21 21 19 16 17 11
20 19 17 11 8 5 3 7 10 4 6 4 3 2 4 5 11 8 16 19 23 12 17 19 18 23 26 25 26 17 14 17 19 18 18 17 13 11 10 20 23 21 17 10 4
20 20 17 6 2 9 9 9 3 4 8 3 2 10 12 6 11 15 5 19 17 19 21 17 12 27 28 20 21 11 13 14 8 10 14 14 12 11 16 19 14 13 9 2 1
22 20 10 4 2 2 5 3 3 6 6 4 7 12 14 9 12 17 15 9 15 19 19 16 17 6 15 19 20 20 14 7 8 8 10 14 14 20 17 18 19 18 6 1 5
22 15 2 2 4 4 2 2 6 3 6 10 12 15 11 10 6 14 17 8 23 14 10 14 13 21 18 21 18 27 21 9 9 7 7 6 11 10 19 19 22 15 10 4 8
15 3 2 4 4 3 1 2 3 3 5 10 15 9 3 8 10 6 8 8 11 9 8 13 17 14 21 19 22 25 21 13 2 2 5 6 7 11 16 12 8 10 5 8 10
4 3 4 7 3 2 1 4 4 7 11 7 7 7 10 9 10 4 6 7 9 14 8 8 10 12 23 23 24 17 20 11 9 10 9 5 5 9 3 15 10 9 10 10 11
3 2 2 5 2 2 2 4 6 9 9 4 5 8 8 12 6 1 4 8 7 15 14 6 7 13 23 22 23 12 21 7 9 5 6 3 6 8 11 5 4 3 10 13 14
3 1 3 3 2 1 3 8 8 9 6 7 7 9 9 9 7 4 6 5 3 7 9 5 6 7 24 9 19 20 22 20 10 10 8 2 5 2 8 5 6 2 10 10 12
5 3 2 2 4 4 6 7 6 7 8 6 6 5 9 8 6 6 3 3 3 4 6 8 5 8 10 6 17 27 20 16 6 6 15 10 3 4 4 3 1 6 12 12 13
2 4 3 3 1 4 8 6 8 8 9 6 11 8 8 7 6 6 6 0 4 1 6 8 4 8 7 6 1 24 23 20 14 9 10 16 12 17 8 1 6 6 7 12 14
3 2 1 4 4 9 7 6 10 8 3 4 3 2 9 6 11 2 4 6 4 1 4 4 3 6 13 11 9 4 23 23 21 15 12 9 24 20 16 5 2 6 12 12 15
2 3 1 5 8 9 4 4 9 8 5 8 6 12 13 10 11 15 7 3 1 2 2 3 2 9 9 10 8 8 6 11 26 23 18 13 14 12 13 7 4 9 14 16 16
0 2 2 6 4 5 3 4 8 14 9 10 13 15 14 13 10 10 14 14 14 12 4 2 4 4 7 3 5 11 14 9 9 20 20 22 26 11 14 12 8 9 16 18 18
Wind_Direction
357 353 348 342 341 339 337 333 333 330 328 326 324 331 332 328 325 326 257 220 172 222 185 140 211 188 158 159 137 140 231 240 235 226 250 203 249 61 328 300 263 266 285 302 309
349 347 344 342 342 340 331 331 330 327 323 326 330 330 331 328 322 278 256 234 231 169 181 174 193 180 179 177 170 195 228 235 235 246 262 281 291 299 283 291 276 281 271 271 275
350 349 344 338 334 332 331 330 323 322 324 323 323 324 326 320 265 236 346 242 249 197 204 209 199 196 206 168 185 204 231 236 256 252 265 284 280 289 288 287 278 291 296 304 287
347 346 343 341 336 333 327 321 320 321 320 318 315 315 321 294 249 149 31 13 341 211 220 219 199 200 207 203 211 235 231 238 248 260 264 265 291 276 282 269 281 289 285 283 285
346 343 340 337 333 329 324 321 315 310 308 309 311 314 323 234 243 309 357 2 23 158 205 204 199 210 208 209 219 232 245 230 245 265 264 272 266 270 286 280 287 278 278 269 275
341 340 339 334 331 328 322 314 308 307 300 302 297 299 257 248 236 296 346 342 254 174 187 211 217 231 254 226 210 224 239 246 241 254 261 266 269 266 265 268 285 281 275 277 272
338 336 334 334 330 327 319 312 311 300 294 289 284 277 253 248 278 286 296 268 339 311 231 219 234 258 268 239 238 243 252 234 232 235 249 285 268 242 257 278 271 275 277 276 274
336 334 332 330 329 325 319 314 310 301 292 279 254 252 255 245 267 269 267 277 234 238 259 245 228 239 244 312 244 219 229 241 227 232 247 222 267 267 266 268 274 273 282 280 276
335 334 331 329 327 325 320 318 310 309 294 225 187 221 264 272 259 255 245 249 236 202 218 252 204 215 196 228 246 210 232 221 236 197 207 200 269 261 272 282 283 280 282 280 282
333 331 330 328 328 326 322 312 304 250 112 152 207 234 243 296 252 302 244 224 230 172 178 204 196 209 213 201 218 218 225 237 238 220 229 243 253 276 286 294 278 287 283 278 273
331 332 330 328 327 327 325 328 302 199 328 264 263 259 288 273 274 247 311 161 219 192 187 188 195 220 210 214 236 253 252 246 242 222 245 255 272 276 292 292 284 286 281 276 271
327 327 327 327 327 331 338 16 66 341 297 258 250 250 256 275 302 262 212 207 192 208 188 176 222 217 222 217 223 231 244 243 250 247 253 281 277 288 282 279 279 280 284 276 283
324 324 325 323 322 360 311 278 347 331 260 290 242 255 242 218 237 274 204 200 217 212 195 198 225 201 200 210 213 223 230 237 245 264 262 278 278 274 277 280 279 274 273 274 269
326 324 323 328 310 328 298 219 327 294 286 274 231 252 205 220 234 238 227 209 217 220 207 229 222 194 203 218 205 231 220 242 246 254 260 244 285 274 283 284 276 280 274 268 264
324 322 321 329 301 278 323 323 323 196 294 77 131 192 313 222 331 325 211 218 226 200 197 219 198 199 206 206 202 237 220 228 235 239 264 255 268 281 276 274 274 273 267 271 304
325 325 328 293 186 262 293 314 242 209 245 314 43 343 330 35 349 336 277 232 227 243 229 224 205 195 208 198 198 182 215 209 221 237 246 251 245 277 263 256 275 266 250 350 8
330 328 329 290 280 54 344 301 197 235 331 15 345 328 316 355 3 342 317 218 221 200 226 219 225 209 194 193 190 189 179 174 207 217 256 248 233 244 262 248 255 263 289 56 135
329 320 323 268 288 273 277 175 229 261 279 349 338 320 308 7 49 335 327 309 214 245 243 208 190 205 189 193 186 187 185 188 194 196 223 161 213 248 242 254 244 250 281 187 154
323 352 0 344 277 202 215 225 283 302 357 330 322 304 300 3 344 358 344 297 27 249 272 214 224 188 184 180 166 189 204 191 208 36 254 163 252 281 247 257 236 236 207 177 157
344 333 5 346 109 236 209 275 285 325 323 314 285 273 301 335 327 16 324 33 352 356 323 280 233 203 182 185 202 189 172 188 211 211 233 190 260 251 236 226 212 200 193 162 160
31 17 36 351 1 344 294 280 294 290 315 298 300 296 289 293 288 82 254 321 22 331 319 284 272 172 170 201 185 176 186 185 192 224 209 244 236 208 237 218 196 180 163 166 153
7 357 10 332 54 339 310 321 313 296 332 288 278 284 268 308 286 204 236 202 17 336 327 322 303 235 198 188 193 197 187 183 188 190 213 261 250 24 257 272 251 184 135 146 157
351 295 329 293 26 339 325 313 278 298 325 310 292 302 302 299 305 305 274 74 159 10 343 343 239 227 147 161 201 201 193 190 174 155 199 203 232 172 257 262 139 159 138 154 164
343 346 341 21 68 313 333 319 316 300 305 335 285 298 311 294 283 276 296 48 199 302 356 328 257 288 210 165 56 199 194 195 194 198 188 217 218 264 278 352 92 108 147 164 171
5 36 54 308 326 329 318 304 299 321 307 317 313 313 348 302 316 91 11 317 178 24 20 18 275 313 284 276 280 171 197 199 202 207 215 201 225 238 268 298 54 179 157 174 173
353 332 269 283 298 307 303 288 293 308 304 306 273 326 324 293 293 297 284 279 30 234 279 3 334 336 257 235 248 251 201 215 212 223 233 248 251 237 275 289 222 180 171 187 184
46 275 253 281 287 289 281 278 285 305 280 258 304 312 299 292 290 282 285 270 266 274 271 241 341 333 224 344 286 249 223 201 202 227 226 228 240 257 280 273 248 191 186 196 183